Regional Weather Roundup
Issued by NWS Grand Forks, ND

Home | Current Version | Previous Version | Text Only | Print | Product List | Glossary On
Versions: 1 2 3 4 5 6 7 8 9 10 11 12 13 14 15 16 17 18 19 20 21 22 23 24 25 26 27 28 29 30 31 32 33 34 35 36 37 38 39 40 41 42 43 44 45 46 47 48 49 50
000
ASUS43 KFGF 250210
RWRFGF
PRAIRIE TO PINES  WEATHER ROUNDUP
NATIONAL WEATHER SERVICE EASTERN NORTH DAKOTA/GRAND FORKS ND
900 PM CDT SUN MAY 24 2015

 **SATELLITE DATA USED TO AUGMENT SKY COVER AT AUTOMATED STATIONS**
 *****  WEATHER ACROSS EASTERN NORTH DAKOTA  *****

CITY           SKY/WX    TMP DP  RH WIND       PRES   REMARKS
GRAND FORKS    CLOUDY    68  50  52 S5        29.89S
GRAND FRKS AFB CLOUDY    67  52  58 S3        29.90S
GRAND FRKS NWS   N/A     64 N/A N/A SE2         N/A
DEVILS LAKE    CLOUDY    66  48  52 E6        29.90F
FARGO          CLOUDY    66  54  65 CALM      29.88S
WAHPETON ARPT  CLOUDY    59  54  82 E8        29.88F
$$

 ***** WEATHER ACROSS CENTRAL AND WESTERN NORTH DAKOTA  *****

CITY           SKY/WX    TMP DP  RH WIND       PRES   REMARKS
BISMARCK       CLOUDY    63  52  67 E6        29.89F
MINOT          MOCLDY    66  44  45 NE6       29.90S
JAMESTOWN      CLOUDY    63  53  70 SE3       29.89F
MINOT AFB      PTCLDY    69  46  42 SE7       29.89S
GARRISON         N/A     67  48  50 E3        29.90F
WILLISTON      PTCLDY    69  43  38 E8        29.91R
DICKINSON      CLOUDY    59  50  72 NE5       29.90S
HETTINGER      CLOUDY    58  49  72 NE10      29.90F
$$

 *****  OTHER AIRPORT OBSERVATIONS IN OUR AREA  *****

CITY           SKY/WX    TMP DP  RH WIND       PRES   REMARKS
WALHALLA         N/A     68  48  49 CALM      29.90S
GRAFTON AIRPOR FAIR      70  52  52 CALM      29.90S
VALLEY CITY AR CLOUDY    64  54  68 E7        29.89F
CANDO          FAIR      66  48  52 SE3       29.92S
CAVALIER APRT  FAIR      72  48  43 CALM      29.89S
GWINNER        NOT AVBL
SHEYENNE NWR     N/A     61  54  78 SE3       29.95S
ROLLA          FAIR      68  43  40 SE9       29.94S
 ***** THE ABOVE OBSERVATIONS ARE NON NWS ARE NOT QUALITY
       CONTROLLED AND MAY MIS-REPORT RAIN FOR SNOW...
$$

  *****  WEATHER ACROSS NORTHERN MINNESOTA  *****

CITY           SKY/WX    TMP DP  RH WIND       PRES   REMARKS
FLAG ISLAND    CLOUDY    66  46  48 CALM      29.89S
WARROAD        CLOUDY    66  54  63 CALM      29.91S
ROSEAU         CLOUDY    70  50  49 SW3       29.91S
HALLOCK        CLOUDY    72  48  43 SE5       29.89S
THF RVR FALLS  CLOUDY    66  46  48 SE7       29.91F
BAUDETTE       CLOUDY    68  50  52 CALM      29.90F
WASKISH        CLOUDY    63  57  82 CALM      29.92S
CROOKSTON      CLOUDY    70  48  46 SE5       29.90F
STEPHEN NDAWN    N/A     70  46  43 E3          N/A
GREENBUSH NDAW   N/A     66  57  72 SW3         N/A
$$
  *****  WEATHER ACROSS CENTRAL AND WEST MINNESOTA  *****

CITY           SKY/WX    TMP DP  RH WIND       PRES   REMARKS
FOSSTON        CLOUDY    63  46  55 CALM      29.91F
BEMIDJI        CLOUDY    63  49  60 SE5       29.91F
PARK RAPIDS    CLOUDY    64  51  62 SE6       29.91F
ELBOW LAKE     DRIZZLE   58  56  94 NE9       29.87F
WADENA         DRIZZLE   57  54  88 NE7       29.89F
DETROIT LAKES  RAIN      63  54  72 SE5       29.91F
MOORHEAD       CLOUDY    64  55  72 CALM      29.89S
FERGUS FALLS   DRIZZLE   61  55  82 E6        29.89S
MORRIS MN      DRIZZLE   59  57  94 E12       29.84F
STAPLES        LGT RAIN  57  54  88 NE3       29.90F
$$
  *****  WEATHER ELSEWHERE ACROSS MINNESOTA  *****

CITY           SKY/WX    TMP DP  RH WIND       PRES   REMARKS
DULUTH         LGT RAIN  61  55  81 SE7       29.95S
INTRNTL FALLS  CLOUDY    60  53  77 CALM      29.90F
ELY            CLOUDY    64  48  55 CALM      29.94S
CLOQUET        LGT RAIN  59  55  88 CALM      29.94F
WHEATON        DRIZZLE   55  55 100 NE7       29.88F
BRAINERD       LGT RAIN  59  55  87 NE7       29.90F
HIBBING        CLOUDY    63  50  62 CALM      29.93F
ALEXANDRIA     CLOUDY    58  55  90 NE10      29.88F
SAINT CLOUD    LGT RAIN  58  57  97 E8        29.85F
MINNEAPOLIS    LGT RAIN  59  58  96 E12       29.83F FOG
$$

  *****  WEATHER ACROSS SOUTH DAKOTA  *****

CITY           SKY/WX    TMP DP  RH WIND       PRES   REMARKS
SIOUX FALLS    CLOUDY    60  58  92 NE7       29.77F
BROOKINGS      CLOUDY    59  55  88 NE10      29.81F
WATERTOWN      RAIN      58  56  93 E8        29.83S FOG
HURON          CLOUDY    60  58  92 NE7       29.80F
SISSETON         N/A     58  58 100 E8        29.85F
ABERDEEN       CLOUDY    59  56  89 E14       29.84F
MITCHELL       CLOUDY    62  60  93 NE7       29.79F
PIERRE         LGT RAIN  58  57  97 NE7       29.81F FOG
MOBRIDGE       LGT RAIN  58  58 100 NE8       29.83F
RAPID CITY     CLOUDY    55  53  93 NE12      29.86R
$$

  *****  SOME WEATHER IN NEARBY STATES *****

CITY           SKY/WX    TMP DP  RH WIND       PRES   REMARKS
GLASGOW MT     MOCLDY    69  39  33 SE7       29.90F
GREAT FALLS MT CLEAR     61  43  51 SE6       29.97S
CHEYENNE WY    MOCLDY    49  41  74 N9        29.88R
SCOTTSBLUFF NE CLOUDY    55  47  74 NW12      29.79F
OMAHA NE       CLOUDY    68  61  78 SW6       29.76F
DES MOINES IA  CLOUDY    68  63  84 S6        29.78S
DAVENPORT IA   CLOUDY    68  65  90 S9        29.84F
CHICAGO IL     MOCLDY    64  62  93 E9        29.92F
EAU CLAIRE WI  LGT RAIN  58  56  93 E8        29.88F FOG
LA CROSSE WI   LGT RAIN  61  57  87 SE5       29.86F
$$

  *****  SOME NATIONAL WEATHER *****

CITY           SKY/WX    TMP DP  RH WIND       PRES   REMARKS
LA GUARDIA NY  CLOUDY    69  51  52 S8        30.26R
RALEIGH NC     PTCLDY    71  56  58 S5        30.32R
ATLANTA GA     PTCLDY    76  58  53 E9        30.23R
NEW ORLEANS LA CLOUDY    82  73  74 SE12      30.01S
OKLAHOMA CITY  PTCLDY    66  63  90 E10       29.85R
ALBUQUERQUE NM HVY RAIN  51  41  68 SW30G52   29.95
SALT LAKE CITY MOCLDY    63  43  48 NW9       29.88R
LOS ANGELES CA CLEAR     62  53  72 W10       29.95S
BOISE ID       SUNNY     76  40  27 NW12      29.80R
SEATTLE WA     PTSUNNY   60  50  69 W8        30.03F
$$

*** WEATHER ACROSS MANITOBA...SASKATCHEWAN AND ONTARIO ***
                ***ONTARIO***

CITY           SKY/WX    TMP DP  RH WIND       PRES   REMARKS
GERALDTON      MOCLDY    63  45  51 SW5       29.93R
THUNDER BAY    MOCLDY    63  45  51 E3        29.92R
SIOUX LOOKOUT  MOCLDY    63  45  51 SE2       29.90F
TORONTO        CLOUDY    75  45  33 SW12G17   30.13S
BIG TROUT LK   CLEAR     54  34  47 N3        29.93R
PICKLE LAKE    PTCLDY    68  25  19 NW3       29.91S
DRYDEN         CLEAR     73  41  31 W5        29.90S
KENORA         MOCLDY    70  48  46 CALM      29.91F
$$
                *** MANITOBA***

CITY           SKY/WX    TMP DP  RH WIND       PRES   REMARKS
BRANDON        PTCLDY    72  43  35 E7        29.91R
DAUPHIN        CLEAR     72  43  35 SE7       29.87F
ISLAND LAKE    NOT AVBL
PILOT MOUND      N/A     68  41  37 SE8         N/A
THE PAS        PTCLDY    70  36  28 E2        29.89S
THOMPSON       PTCLDY    61  36  39 NE9G17    29.90R
WINNIPEG       CLOUDY    70  46  43 NE9       29.89F
LYNN LAKE      CLEAR     63  37  39 E10       29.90S
CHURCHILL      PTCLDY    32  25  74 NE7       30.05S
$$
                ***SASKATCHEWAN***

CITY           SKY/WX    TMP DP  RH WIND       PRES   REMARKS
ESTEVAN        CLOUDY    70  41  35 E7        29.91S
KINDERSLEY     MOCLDY    77  27  15 S9        29.93S
LLOYDMINSTER   PTSUNNY   70  36  28 E10       29.93R
PRINCE ALBERT  PTCLDY    73  39  29 NW8       29.88F
REGINA         PTCLDY    72  37  28 NW3       29.91F
YORKTON        MOCLDY    72  45  37 CALM      29.89S
N. BATTLEFORD  PTCLDY    72  37  28 N5        29.93S
LA RONGE       PTCLDY    70  37  30 S5        29.87F
SASKATOON      PTCLDY    72  39  30 N7        29.91F
SWIFT CURRENT  MOCLDY    68  34  28 SE6       29.94F
$$
NOTE: THESE ARE AUTOMATED STATIONS WITH LIMITED QUALITY CONTROL
      "FAIR" INDICATES FEW OR NO CLOUDS BELOW 12,000 FEET WITH NO
      SIGNIFICANT WEATHER AND/OR OBSTRUCTIONS TO VISIBILITY.
      SKY/WX - SKY CONDITION AND SIGNIFICANT WEATHER.
      TMP - AIR TEMPERATURE.    DP   - DEWPOINT TEMPERATURE.
      RH  - RELATIVE HUMIDITY.  PRES - PRESSURE.
      HX  - HEAT INDEX.         WCI  - WIND CHILL INDEX.
$



USA.gov is the U.S. government's official web portal to all federal, state and local government web resources and services.